Погода в Челтнеме

Великобритания     51°53′49″N   2°04′46″W
темп.,
°C
ветер,
м/с
пор.,
м/с
влажн.,
%
обл.,
%
осадки,
мм/ч
давл.,
гПа
погр.,
м
16 января, вс
вс1600:00+5ююз3579100 0.0 1023112
03:00+5ююз3594100 0.0 1022143
06:00+4юз329767 0.1 102335
09:00+4юз229482 0.0 102522
12:00+8зсз488070 0.0 1027518
15:00+8сз478373 0.0 1028470
18:00+4ссз2787100 0.0 1032186
21:00+3сз36895 0.0 1034127
17 января, пн
пн1700:00+2з22910 0.0 103632
03:00+1з22914 0.0 103620
06:00+1з22890 0.0 103714
09:00+2з22860 0.0 103825
12:00+6сз23773 0.0 1039274
15:00+6ссз11834 0.0 103815
18:00+3з00895 0.0 103810
21:00+3ююв11874 0.0 103910
18 января, вт
вт1800:00+2ю22860 0.0 103911
03:00+2ю22855 0.0 103815
06:00+1ю228481 0.0 103721
09:00+2ю338390 0.0 103746
12:00+6ю3675100 0.0 1037235
15:00+6ю2385100 0.0 103595
18:00+5ю2293100 0.0 103435
21:00+3ю34941 0.0 103354
19 января, ср
ср1900:00+2ююз359337 0.0 103282
03:00+2ююз3595100 0.0 102981
06:00+2ююз3996100 0.0 1027185
09:00+4ююз51294100 0.0 1025331
12:00+6юз5139599 1.8 1022458
15:00+7сз71290100 0.6 1021920
18:00+4ссз715806 0.6 1024782
21:00+4ссз512835 0.0 1026654
20 января, чт
чт2000:00+2ссз412905 0.0 1029360
03:000ссз24946 0.0 103177
06:00−1сз22925 0.0 103336
09:00−1ссз21084100 0.0 1035356
12:00+2с696362 0.0 1036808
15:00+2ссз58645 0.0 1037972
18:00−1ссз37765 0.0 1038153
21:00−2сз22802 0.0 103922